Date,TemperatureHighF,TemperatureAvgF,TemperatureLowF,DewpointHighF,DewpointAvgF,DewpointLowF,HumidityHigh,HumidityAvg,HumidityLow,PressureMaxIn,PressureMinIn,WindSpeedMaxMPH,WindSpeedAvgMPH,GustSpeedMaxMPH,PrecipitationSumIn
2013-1-1,56,48,36,55,45,32,99,90,64,30.29,30.00,57,2,57,0.00
2013-1-2,50,37,26,32,29,22,86,72,47,30.37,30.26,7,2,7,0.00
2013-1-3,52,37,23,37,29,20,93,74,48,30.47,30.34,6,1,7,0.00
2013-1-4,42,36,33,35,32,30,93,86,74,30.53,30.41,6,1,6,0.00
2013-1-7,48,47,44,40,39,38,77,74,72,30.13,30.08,4,1,4,0.00
2013-1-8,53,49,46,53,48,40,99,96,73,30.09,29.92,6,2,6,0.00
2013-1-9,64,55,49,61,54,48,99,97,83,30.06,29.88,11,2,11,0.00
2013-1-10,72,54,43,51,46,30,99,77,40,30.23,30.00,15,3,15,0.00
2013-1-11,79,60,38,63,52,37,98,79,50,30.04,29.85,17,4,17,0.00
2013-1-12,77,65,46,68,59,33,99,81,52,29.97,29.71,15,4,15,0.00
2013-1-13,63,44,33,34,28,23,72,55,26,30.22,29.97,13,4,13,0.00
2013-1-14,62,41,31,30,26,20,68,55,26,30.29,30.13,9,3,9,0.00
2013-1-15,41,36,30,34,30,21,93,78,62,30.28,30.13,13,4,13,0.00
2013-1-16,60,39,23,26,20,15,77,52,21,30.36,30.20,13,3,13,0.00
2013-1-17,77,45,25,38,28,19,89,59,20,30.51,30.31,8,2,8,0.00
2013-1-18,72,47,25,40,30,22,92,58,21,30.53,30.32,13,2,13,0.00
2013-1-19,75,53,33,48,40,29,97,65,34,30.33,30.16,15,4,15,0.00
2013-1-20,86,55,32,49,39,30,98,64,20,30.28,30.10,11,2,11,0.00
2013-1-21,85,56,35,50,42,34,99,67,24,30.28,30.15,7,1,7,0.00
2013-1-22,78,55,35,53,43,32,96,69,39,30.34,30.22,15,3,15,0.00
2013-1-23,79,59,40,58,50,40,98,75,46,30.35,30.22,15,4,15,0.00
2013-1-24,87,65,44,63,55,44,99,74,38,30.27,30.11,16,4,16,0.00
2013-1-25,87,68,51,62,58,28,95,72,40,30.21,30.05,18,4,18,0.00
2013-1-26,79,56,50,59,52,34,99,85,65,30.22,30.10,5,2,5,0.00
2013-1-27,83,68,55,65,61,31,99,78,49,30.34,29.98,19,7,19,0.00
2013-1-28,82,72,68,67,65,45,91,79,55,30.13,29.90,22,7,22,0.00
2013-1-29,85,69,54,67,55,17,93,63,23,29.91,29.57,25,9,25,0.00
2013-1-30,65,49,30,30,19,10,62,33,18,30.24,29.84,21,5,21,0.00
2013-1-31,73,48,24,31,21,16,79,41,14,30.31,30.13,17,4,17,0.00